TimeEDT,TemperatureF,Dew PointF,Humidity,Sea Level PressureIn,VisibilityMPH,Wind Direction,Wind SpeedMPH,Gust SpeedMPH,PrecipitationIn,Events,Conditions,WindDirDegrees,DateUTC
12:53 AM,42.1,39.9,92,29.94,6.0,SW,4.6,-,N/A,,Clear,230,2012-10-21 04:53:00
1:53 AM,39.9,37.9,93,29.96,5.0,Calm,Calm,-,N/A,,Clear,0,2012-10-21 05:53:00
2:11 AM,39.2,39.2,100,29.95,2.0,SSW,3.5,-,N/A,,Clear,200,2012-10-21 06:11:00
2:27 AM,39.2,39.2,100,29.96,4.0,SW,3.5,-,N/A,,Clear,220,2012-10-21 06:27:00
2:53 AM,39.9,37.9,93,29.97,5.0,SSW,3.5,-,N/A,,Clear,210,2012-10-21 06:53:00
3:53 AM,39.9,39.0,97,29.99,5.0,Calm,Calm,-,N/A,,Mostly Cloudy,0,2012-10-21 07:53:00
4:53 AM,37.9,36.0,93,30.01,3.0,SSE,3.5,-,N/A,,Mostly Cloudy,160,2012-10-21 08:53:00
5:53 AM,37.0,36.0,96,30.02,3.0,South,3.5,-,N/A,,Clear,190,2012-10-21 09:53:00
6:53 AM,37.9,36.0,93,30.03,4.0,South,3.5,-,N/A,,Clear,190,2012-10-21 10:53:00
7:53 AM,39.0,37.0,93,30.05,4.0,South,3.5,-,N/A,,Clear,180,2012-10-21 11:53:00
8:53 AM,39.9,39.0,97,30.06,4.0,South,5.8,-,N/A,,Partly Cloudy,170,2012-10-21 12:53:00
9:53 AM,48.0,45.0,89,30.08,6.0,South,5.8,-,N/A,,Partly Cloudy,190,2012-10-21 13:53:00
10:53 AM,52.0,46.9,83,30.09,8.0,South,5.8,-,N/A,,Scattered Clouds,190,2012-10-21 14:53:00
11:53 AM,57.0,44.1,62,30.09,10.0,WSW,9.2,-,N/A,,Scattered Clouds,240,2012-10-21 15:53:00
12:53 PM,57.9,43.0,58,30.09,10.0,SSW,11.5,-,N/A,,Scattered Clouds,200,2012-10-21 16:53:00
1:53 PM,60.1,42.1,51,30.07,10.0,SW,4.6,-,N/A,,Scattered Clouds,230,2012-10-21 17:53:00
2:53 PM,60.1,42.1,51,30.06,10.0,SSW,4.6,-,N/A,,Scattered Clouds,200,2012-10-21 18:53:00
3:53 PM,62.1,42.1,48,30.04,10.0,South,9.2,-,N/A,,Partly Cloudy,180,2012-10-21 19:53:00
4:53 PM,62.1,39.9,44,30.04,10.0,South,8.1,-,N/A,,Partly Cloudy,180,2012-10-21 20:53:00
5:53 PM,60.1,42.1,51,30.04,10.0,South,6.9,-,N/A,,Partly Cloudy,180,2012-10-21 21:53:00
6:53 PM,55.9,39.9,55,30.05,10.0,SE,3.5,-,N/A,,Scattered Clouds,140,2012-10-21 22:53:00
7:53 PM,53.1,39.9,61,30.06,10.0,SE,4.6,-,N/A,,Partly Cloudy,140,2012-10-21 23:53:00
8:53 PM,50.0,39.9,68,30.06,10.0,SE,3.5,-,N/A,,Clear,140,2012-10-22 00:53:00
9:53 PM,48.0,39.9,74,30.07,10.0,Calm,Calm,-,N/A,,Clear,0,2012-10-22 01:53:00
10:53 PM,46.0,39.9,79,30.07,10.0,SE,4.6,-,N/A,,Clear,130,2012-10-22 02:53:00
11:53 PM,45.0,39.9,82,30.06,10.0,SSE,5.8,-,N/A,,Clear,150,2012-10-22 03:53:00